| time (UTC) | temp F | wind direction | speed MPH | gust MPH | rain 1hr in | rain 24hr in | rain mn in | humidity % | barometer mb |
| 20260504023803 | 54 | 305 | 0.0 | 0.0 | 0.00 | 0.00 | 0.00 | 37 | 1016.9 |
| 20260504023303 | 54 | 305 | 0.0 | 0.0 | 0.00 | 0.00 | 0.00 | 37 | 1017.0 |
| 20260504022804 | 54 | 305 | 0.0 | 1.0 | 0.00 | 0.00 | 0.00 | 37 | 1016.9 |
| 20260504021803 | 54 | 303 | 0.0 | 1.0 | 0.00 | 0.00 | 0.00 | 38 | 1016.9 |
| 20260504021304 | 54 | 328 | 0.0 | 1.0 | 0.00 | 0.00 | 0.00 | 39 | 1016.8 |
| 20260504020804 | 54 | 324 | 0.0 | 2.0 | 0.00 | 0.00 | 0.00 | 39 | 1016.8 |
| 20260504015804 | 53 | 245 | 1.0 | 1.0 | 0.00 | 0.00 | 0.00 | 41 | 1016.5 |
| 20260504014804 | 52 | 323 | 0.0 | 1.0 | 0.00 | 0.00 | 0.00 | 41 | 1016.5 |
| 20260504014304 | 52 | 323 | 0.0 | 1.0 | 0.00 | 0.00 | 0.00 | 42 | 1016.5 |
| 20260504013804 | 52 | 312 | 0.0 | 1.0 | 0.00 | 0.00 | 0.00 | 41 | 1016.5 |
| 20260504013305 | 52 | 308 | 0.0 | 1.0 | 0.00 | 0.00 | 0.00 | 39 | 1016.4 |
| 20260504012304 | 52 | 308 | 0.0 | 0.0 | 0.00 | 0.00 | 0.00 | 40 | 1016.2 |
| 20260504011804 | 52 | 308 | 0.0 | 1.0 | 0.00 | 0.00 | 0.00 | 38 | 1016.2 |
| 20260504011304 | 52 | 328 | 0.0 | 1.0 | 0.00 | 0.00 | 0.00 | 38 | 1016.1 |
| 20260504010804 | 53 | 328 | 0.0 | 1.0 | 0.00 | 0.00 | 0.00 | 38 | 1016.0 |
| 20260504010303 | 53 | 328 | 0.0 | 2.0 | 0.00 | 0.00 | 0.00 | 38 | 1016.1 |
| 20260504005804 | 53 | 211 | 0.0 | 1.0 | 0.00 | 0.00 | 0.00 | 37 | 1016.1 |
| 20260504005305 | 54 | 211 | 0.0 | 0.0 | 0.00 | 0.00 | 0.00 | 37 | 1016.0 |
| 20260504004804 | 54 | 211 | 0.0 | 2.0 | 0.00 | 0.00 | 0.00 | 35 | 1016.0 |
| 20260504004305 | 54 | 242 | 0.0 | 1.0 | 0.00 | 0.00 | 0.00 | 35 | 1016.0 |
| 20260504003805 | 55 | 242 | 0.0 | 0.0 | 0.00 | 0.00 | 0.00 | 35 | 1016.0 |
| 20260504003304 | 55 | 242 | 0.0 | 1.0 | 0.00 | 0.00 | 0.00 | 35 | 1016.0 |
| 20260504002803 | 55 | 242 | 1.0 | 1.0 | 0.00 | 0.00 | 0.00 | 33 | 1015.9 |
| 20260504002304 | 56 | 243 | 0.0 | 1.0 | 0.00 | 0.00 | 0.00 | 33 | 1015.9 |
| 20260504001804 | 56 | 243 | 0.0 | 0.0 | 0.00 | 0.00 | 0.00 | 31 | 1015.9 |
| 20260504001304 | 57 | 243 | 0.0 | 1.0 | 0.00 | 0.00 | 0.00 | 31 | 1015.9 |
| 20260504000803 | 58 | 243 | 0.0 | 1.0 | 0.00 | 0.00 | 0.00 | 30 | 1015.9 |
| 20260503235304 | 60 | 250 | 1.0 | 2.0 | 0.00 | 0.00 | 0.00 | 26 | 1015.8 |
| 20260503234804 | 60 | 244 | 1.0 | 2.0 | 0.00 | 0.00 | 0.00 | 27 | 1015.8 |
| 20260503234304 | 60 | 240 | 1.0 | 2.0 | 0.00 | 0.00 | 0.00 | 26 | 1015.8 |
| 20260503233804 | 61 | 206 | 1.0 | 3.0 | 0.00 | 0.00 | 0.00 | 25 | 1015.8 |
| 20260503233304 | 61 | 272 | 2.0 | 3.0 | 0.00 | 0.00 | 0.00 | 24 | 1015.8 |
| 20260503232804 | 61 | 243 | 1.0 | 2.0 | 0.00 | 0.00 | 0.00 | 25 | 1015.7 |
| 20260503232305 | 62 | 334 | 1.0 | 1.0 | 0.00 | 0.00 | 0.00 | 26 | 1015.7 |
| 20260503231804 | 62 | 277 | 1.0 | 3.0 | 0.00 | 0.00 | 0.00 | 24 | 1015.6 |
| 20260503231304 | 62 | 226 | 1.0 | 2.0 | 0.00 | 0.00 | 0.00 | 24 | 1015.5 |
| 20260503230804 | 63 | 226 | 1.0 | 2.0 | 0.00 | 0.00 | 0.00 | 25 | 1015.5 |
| 20260503230304 | 63 | 249 | 1.0 | 2.0 | 0.00 | 0.00 | 0.00 | 24 | 1015.5 |
| 20260503225804 | 64 | 259 | 1.0 | 3.0 | 0.00 | 0.00 | 0.00 | 22 | 1015.4 |
| 20260503225304 | 64 | 239 | 1.0 | 2.0 | 0.00 | 0.00 | 0.00 | 23 | 1015.5 |
| 20260503224804 | 64 | 270 | 1.0 | 2.0 | 0.00 | 0.00 | 0.00 | 22 | 1015.5 |
| 20260503224304 | 65 | 253 | 1.0 | 3.0 | 0.00 | 0.00 | 0.00 | 22 | 1015.6 |
| 20260503223804 | 66 | 227 | 1.0 | 3.0 | 0.00 | 0.00 | 0.00 | 21 | 1015.6 |
| 20260503223304 | 67 | 253 | 1.0 | 5.0 | 0.00 | 0.00 | 0.00 | 21 | 1015.6 |
| 20260503222804 | 67 | 234 | 1.0 | 2.0 | 0.00 | 0.00 | 0.00 | 20 | 1015.6 |
| 20260503222304 | 66 | 229 | 1.0 | 3.0 | 0.00 | 0.00 | 0.00 | 18 | 1015.6 |
| 20260503221804 | 66 | 225 | 1.0 | 3.0 | 0.00 | 0.00 | 0.00 | 20 | 1015.6 |
| 20260503221305 | 66 | 273 | 1.0 | 3.0 | 0.00 | 0.00 | 0.00 | 21 | 1015.6 |
| 20260503220804 | 66 | 285 | 2.0 | 3.0 | 0.00 | 0.00 | 0.00 | 18 | 1015.6 |
| 20260503215803 | 66 | 277 | 2.0 | 3.0 | 0.00 | 0.00 | 0.00 | 20 | 1015.5 |
| 20260503214804 | 66 | 225 | 2.0 | 5.0 | 0.00 | 0.00 | 0.00 | 17 | 1015.6 |
| 20260503214305 | 66 | 274 | 2.0 | 5.0 | 0.00 | 0.00 | 0.00 | 18 | 1015.6 |
| 20260503213805 | 67 | 247 | 2.0 | 5.0 | 0.00 | 0.00 | 0.00 | 19 | 1015.7 |
| 20260503213304 | 67 | 257 | 1.0 | 3.0 | 0.00 | 0.00 | 0.00 | 19 | 1015.7 |
| 20260503212803 | 66 | 282 | 2.0 | 5.0 | 0.00 | 0.00 | 0.00 | 18 | 1015.8 |
| 20260503212305 | 66 | 284 | 3.0 | 6.0 | 0.00 | 0.00 | 0.00 | 18 | 1015.8 |
| 20260503211304 | 67 | 267 | 2.0 | 3.0 | 0.00 | 0.00 | 0.00 | 17 | 1015.7 |
| 20260503210803 | 67 | 259 | 2.0 | 8.0 | 0.00 | 0.00 | 0.00 | 19 | 1015.8 |
| 20260503210304 | 67 | 243 | 2.0 | 7.0 | 0.00 | 0.00 | 0.00 | 20 | 1015.8 |
| 20260503205804 | 67 | 284 | 1.0 | 5.0 | 0.00 | 0.00 | 0.00 | 21 | 1015.9 |
| 20260503205304 | 67 | 273 | 3.0 | 6.0 | 0.00 | 0.00 | 0.00 | 21 | 1015.9 |
| 20260503204804 | 66 | 106 | 1.0 | 2.0 | 0.00 | 0.00 | 0.00 | 21 | 1015.8 |
| 20260503204303 | 66 | 232 | 2.0 | 6.0 | 0.00 | 0.00 | 0.00 | 20 | 1015.9 |
| 20260503203804 | 66 | 188 | 2.0 | 6.0 | 0.00 | 0.00 | 0.00 | 20 | 1016.1 |
| 20260503203304 | 66 | 218 | 2.0 | 7.0 | 0.00 | 0.00 | 0.00 | 20 | 1016.1 |
| 20260503202803 | 66 | 261 | 3.0 | 9.0 | 0.00 | 0.00 | 0.00 | 20 | 1016.1 |
| 20260503202304 | 66 | 261 | 2.0 | 5.0 | 0.00 | 0.00 | 0.00 | 24 | 1016.1 |
| 20260503201805 | 65 | 248 | 3.0 | 5.0 | 0.00 | 0.00 | 0.00 | 21 | 1016.1 |
| 20260503201304 | 66 | 349 | 1.0 | 6.0 | 0.00 | 0.00 | 0.00 | 23 | 1016.1 |
| 20260503200803 | 66 | 281 | 2.0 | 7.0 | 0.00 | 0.00 | 0.00 | 22 | 1016.2 |
| 20260503200303 | 66 | 311 | 2.0 | 3.0 | 0.00 | 0.00 | 0.00 | 22 | 1016.4 |
| 20260503195803 | 65 | 314 | 2.0 | 3.0 | 0.00 | 0.00 | 0.00 | 21 | 1016.5 |
| 20260503195304 | 65 | 276 | 2.0 | 7.0 | 0.00 | 0.00 | 0.00 | 22 | 1016.7 |
| 20260503194803 | 65 | 263 | 2.0 | 6.0 | 0.00 | 0.00 | 0.00 | 23 | 1016.6 |
| 20260503194304 | 65 | 275 | 3.0 | 6.0 | 0.00 | 0.00 | 0.00 | 24 | 1016.7 |
| 20260503193804 | 65 | 192 | 2.0 | 6.0 | 0.00 | 0.00 | 0.00 | 23 | 1016.7 |
| 20260503192803 | 65 | 271 | 3.0 | 9.0 | 0.00 | 0.00 | 0.00 | 24 | 1016.7 |
| 20260503192305 | 64 | 266 | 2.0 | 5.0 | 0.00 | 0.00 | 0.00 | 24 | 1016.7 |
| 20260503191804 | 64 | 343 | 3.0 | 7.0 | 0.00 | 0.00 | 0.00 | 22 | 1016.8 |
| 20260503191303 | 64 | 215 | 3.0 | 10.0 | 0.00 | 0.00 | 0.00 | 23 | 1017.0 |
| 20260503190805 | 64 | 176 | 4.0 | 9.0 | 0.00 | 0.00 | 0.00 | 24 | 1017.1 |
| 20260503190303 | 64 | 247 | 3.0 | 10.0 | 0.00 | 0.00 | 0.00 | 24 | 1017.1 |
| 20260503185804 | 64 | 333 | 2.0 | 5.0 | 0.00 | 0.00 | 0.00 | 25 | 1017.1 |
| 20260503185305 | 64 | 217 | 2.0 | 6.0 | 0.00 | 0.00 | 0.00 | 26 | 1017.3 |
| 20260503184803 | 64 | 336 | 2.0 | 3.0 | 0.00 | 0.00 | 0.00 | 24 | 1017.4 |
| 20260503184303 | 63 | 259 | 1.0 | 3.0 | 0.00 | 0.00 | 0.00 | 24 | 1017.6 |
| 20260503183304 | 64 | 298 | 2.0 | 8.0 | 0.00 | 0.00 | 0.00 | 27 | 1017.6 |
| 20260503182305 | 62 | 242 | 3.0 | 7.0 | 0.00 | 0.00 | 0.00 | 25 | 1017.7 |
| 20260503181804 | 62 | 346 | 3.0 | 7.0 | 0.00 | 0.00 | 0.00 | 28 | 1017.7 |
| 20260503181303 | 62 | 329 | 2.0 | 8.0 | 0.00 | 0.00 | 0.00 | 27 | 1017.7 |
| 20260503180303 | 62 | 253 | 1.0 | 3.0 | 0.00 | 0.00 | 0.00 | 29 | 1017.9 |
| 20260503175804 | 62 | 245 | 3.0 | 6.0 | 0.00 | 0.00 | 0.00 | 28 | 1018.0 |
| 20260503174304 | 61 | 235 | 2.0 | 7.0 | 0.00 | 0.00 | 0.00 | 27 | 1017.9 |
| 20260503173803 | 61 | 215 | 3.0 | 6.0 | 0.00 | 0.00 | 0.00 | 27 | 1018.0 |
| 20260503173304 | 61 | 241 | 2.0 | 3.0 | 0.00 | 0.00 | 0.00 | 28 | 1018.1 |
| 20260503172803 | 61 | 49 | 2.0 | 7.0 | 0.00 | 0.00 | 0.00 | 31 | 1018.2 |
| 20260503172305 | 60 | 321 | 2.0 | 5.0 | 0.00 | 0.00 | 0.00 | 30 | 1018.1 |
| 20260503171804 | 60 | 235 | 2.0 | 5.0 | 0.00 | 0.00 | 0.00 | 28 | 1018.2 |
| 20260503171303 | 60 | 220 | 3.0 | 8.0 | 0.00 | 0.00 | 0.00 | 28 | 1018.3 |
| 20260503170804 | 60 | 337 | 2.0 | 9.0 | 0.00 | 0.00 | 0.00 | 33 | 1018.5 |
| 20260503150803 | 54 | 222 | 1.0 | 5.0 | 0.00 | 0.00 | 0.00 | 36 | 1019.8 |
| 20260503150303 | 54 | 342 | 1.0 | 7.0 | 0.00 | 0.00 | 0.00 | 35 | 1019.8 |
| 20260503140303 | 51 | 233 | 2.0 | 5.0 | 0.00 | 0.00 | 0.00 | 38 | 1020.0 |
| 20260503131305 | 48 | 160 | 2.0 | 7.0 | 0.00 | 0.00 | 0.00 | 42 | 1019.7 |
| 20260503130805 | 47 | 237 | 2.0 | 9.0 | 0.00 | 0.00 | 0.00 | 43 | 1019.7 |
| 20260503110803 | 39 | 231 | 0.0 | 1.0 | 0.00 | 0.00 | 0.00 | 61 | 1018.8 |
| 20260503110303 | 39 | 231 | 0.0 | 1.0 | 0.00 | 0.00 | 0.00 | 61 | 1018.6 |
| 20260503090304 | 41 | 233 | 0.0 | 2.0 | 0.00 | 0.00 | 0.00 | 56 | 1016.9 |
| 20260503081304 | 41 | 242 | 0.0 | 1.0 | 0.00 | 0.00 | 0.00 | 62 | 1016.3 |
| 20260503080804 | 41 | 249 | 0.0 | 1.0 | 0.00 | 0.00 | 0.00 | 64 | 1016.3 |
| 20260503072804 | 41 | 219 | 0.0 | 2.0 | 0.00 | 0.00 | 0.00 | 67 | 1016.1 |
| 20260503072305 | 41 | 242 | 0.0 | 2.0 | 0.00 | 0.00 | 0.00 | 64 | 1015.9 |
| 20260503071804 | 41 | 253 | 0.0 | 2.0 | 0.00 | 0.00 | 0.00 | 65 | 1016.0 |
| 20260503071304 | 40 | 239 | 0.0 | 1.0 | 0.00 | 0.00 | 0.00 | 67 | 1016.0 |
| 20260503070803 | 40 | 222 | 0.0 | 0.0 | 0.00 | 0.00 | 0.00 | 68 | 1015.9 |
| 20260503070304 | 40 | 222 | 0.0 | 1.0 | 0.00 | 0.00 | 0.00 | 68 | 1015.9 |
| 20260503060304 | 38 | 242 | 0.0 | 0.0 | 0.00 | 0.00 | 0.00 | 70 | 1015.7 |
| 20260503054804 | 39 | 242 | 0.0 | 0.0 | 0.00 | 0.00 | 0.00 | 69 | 1015.8 |
| 20260503054304 | 39 | 242 | 0.0 | 0.0 | 0.00 | 0.00 | 0.00 | 68 | 1015.7 |
| 20260503053805 | 39 | 242 | 0.0 | 0.0 | 0.00 | 0.00 | 0.00 | 68 | 1015.7 |
| 20260503053304 | 39 | 242 | 0.0 | 0.0 | 0.00 | 0.00 | 0.00 | 67 | 1015.7 |
| 20260503052305 | 40 | 242 | 0.0 | 0.0 | 0.00 | 0.00 | 0.00 | 66 | 1015.7 |
| 20260503051805 | 40 | 242 | 0.0 | 0.0 | 0.00 | 0.00 | 0.00 | 66 | 1015.7 |
| 20260503050804 | 40 | 242 | 0.0 | 0.0 | 0.00 | 0.00 | 0.00 | 66 | 1015.6 |
| 20260503050304 | 40 | 242 | 0.0 | 0.0 | 0.00 | 0.00 | 0.00 | 66 | 1015.6 |
| 20260503045803 | 40 | 242 | 0.0 | 0.0 | 0.00 | 0.00 | 0.00 | 64 | 1015.6 |
| 20260503044304 | 41 | 242 | 0.0 | 0.0 | 0.00 | 0.00 | 0.00 | 62 | 1015.5 |
| 20260503043803 | 41 | 242 | 0.0 | 0.0 | 0.00 | 0.00 | 0.00 | 62 | 1015.6 |
| 20260503043303 | 41 | 242 | 0.0 | 0.0 | 0.00 | 0.00 | 0.00 | 61 | 1015.5 |
| 20260503042805 | 42 | 242 | 0.0 | 0.0 | 0.00 | 0.00 | 0.00 | 61 | 1015.5 |
| 20260503042305 | 42 | 242 | 0.0 | 1.0 | 0.00 | 0.00 | 0.00 | 60 | 1015.5 |
| 20260503041803 | 42 | 242 | 0.0 | 0.0 | 0.00 | 0.00 | 0.00 | 59 | 1015.5 |
| 20260503041303 | 42 | 242 | 0.0 | 0.0 | 0.00 | 0.00 | 0.00 | 60 | 1015.6 |
| 20260503040803 | 43 | 242 | 0.0 | 0.0 | 0.00 | 0.00 | 0.00 | 59 | 1015.6 |
| 20260503040303 | 43 | 242 | 0.0 | 0.0 | 0.00 | 0.00 | 0.00 | 58 | 1015.6 |
| 20260503035803 | 43 | 242 | 0.0 | 0.0 | 0.00 | 0.00 | 0.00 | 56 | 1015.5 |
| 20260503035304 | 43 | 242 | 0.0 | 0.0 | 0.00 | 0.00 | 0.00 | 54 | 1015.5 |
| 20260503034304 | 44 | 242 | 0.0 | 0.0 | 0.00 | 0.00 | 0.00 | 53 | 1015.5 |
| 20260503033303 | 45 | 242 | 0.0 | 0.0 | 0.00 | 0.00 | 0.00 | 52 | 1015.4 |
| 20260503032304 | 46 | 242 | 0.0 | 0.0 | 0.00 | 0.00 | 0.00 | 52 | 1015.3 |
| 20260503031804 | 46 | 242 | 0.0 | 0.0 | 0.00 | 0.00 | 0.00 | 51 | 1015.2 |
| 20260503031304 | 47 | 242 | 0.0 | 1.0 | 0.00 | 0.00 | 0.00 | 50 | 1015.2 |
| 20260503030804 | 47 | 242 | 0.0 | 0.0 | 0.00 | 0.00 | 0.00 | 49 | 1015.2 |
| 20260503030304 | 47 | 242 | 0.0 | 0.0 | 0.00 | 0.00 | 0.00 | 47 | 1015.2 |
| 20260503025804 | 48 | 242 | 0.0 | 0.0 | 0.00 | 0.00 | 0.00 | 47 | 1015.2 |